Find Pony Express-2 SV2

NORAD ID: 59104 Int'l Des: 2024-043 Owner: TYVAK Country: US operational
LEOCIRCULARRETROGRADESSO

实时位置

正在加载3D地球...

关于 Pony Express-2 SV2

正在加载描述...

即将过境

Passes for default location (London). Set your location on the main map for personalized predictions.

高度历史

Loading altitude history...

两行轨道根数

1 59104U 24043G 26135.30418064 .00001832 00000-0 16414-3 0 9998
2 59104 97.8349 265.8991 0007251 143.5837 216.5879 14.97045044119734
Epoch: May 15, 2026 • Age: 16 hours

当前状态

高度 606.8 km
速度 7.55 km/s
星下点 -72.27°S, 73.04°E
发射日期 Mar 4, 2024
运行时间 2.1 years
类型 other

技术详情

分类 Payload
质量 26.00 kg
干质量 26.00 kg
总质量 26.00 kg
长度 0.30 m
直径 0.20 m
跨度 1.40 m
形状 Box + 2 pan
制造商 TYVAK
平台类型 Cubesat 12U
阶段状态 In Orbit
所有者/国家 TYVAK/US

Most Searched